Карточка аэропорта URRP

Внимание!
Информация на этой странице в стадии наполнения.
Если вы не увидели какой-то информации, или заметили неточность - пожалуйста сообщите нам!
Спасибо!
Команда RU-STAFF
Название аэропортаПлатов
Название аэропорта (англ.)Platov
Превышение282 ft. (86 m.)
Координаты47°29.634', 39°55.482'
Высота перехода3500 ft
Эшелон переходаFL50 (QNH >= 996); FL60 (QNH < 996)
Коды ответчика1001-1017
Зона ОрВДРостов-на-Дону РПИ (URRV)
Данные METARURRP 160830Z 12005MPS 060V160 CAVOK 36/10 Q1012 R05/CLRD70 NOSIG RMK QFE754/1005
Проноз погоды (TAF)URRP 160755Z 1609/1709 07003G12MPS 9999 SCT030CB TX38/1611Z TN24/1701Z TEMPO 1609/1618 10006G14MPS TEMPO 1706/1709 10006G14MPS
NOTAMshow/hide NOTAM
AWOS   TABLE

Информация о ВПП

ВПП Длина ВПП (м.) Покрытие Курс ВПП Частота ILS
233900Цементобетон226110.9
053900Цементобетон46111.5

Диспетчерские позиции

Позывной Наименование органа УВД Частота
URRP_R_APPПлатов - Круг121.2
URRP_GNDПлатов - руление119.0
URRP_TWRПлатов-Вышка119.7
URRP_DELПлатов-деливери127.1
URRP_APPПлатов-подход128.2



Спутниковое изображение